Terminal Aerodrome Forecast
Issued by NWS Key West, FL

Home | Current Version | Previous Version | Text Only | Print | Product List | Glossary On
Versions: 1 2 3 4 5 6 7 8 9 10 11 12 13 14 15 16 17 18 19 20 21 22 23 24 25 26 27 28 29 30 31 32 33 34 35 36 37
000
FTUS42 KKEY 201700 AAA
TAFEYW
TAF AMD
KEYW 201749Z 2018/2118 VRB05KT P6SM VCTS SCT022CB BKN040 BKN060
      TEMPO 2018/2020 1SM +TSRA BKN022CB OVC040
     FM210000 09006KT P6SM FEW022
     FM210900 10007KT P6SM VCSH SCT022=

USA.gov is the U.S. government's official web portal to all federal, state and local government web resources and services.